3

www.moto.it

MXGP. Herlings e Prado si aggiudicano le qualifiche in Belgio

3
...

Attenzione: la versione di Internet Explorer che stai utilizzando non permette una corretta visualizzazione.
Moto.it è ottimizzato per Internet Explorer 9 o superiore, oppure puoi utilizzare altri browser come Chrome, Firefox o Safari.

MXGP. Herlings e Prado si aggiudicano le qualifiche in Belgio

Herlings segna il miglior crono nelle qualifiche a Lommel e lascia alle sue spalle Cairoli e Febvre. Quarta piazza per Anstie che anticipa Strijbos e Van Horebeek. 12° Gajser mentre Lupino si classifica ventesimo.

Per la MX2 Prado si qualifica primo davanti a Jonass e Covington. Nona piazza per Cervellin.

CLASSIFICHE

MXGP - Qualifying Race - Classification

Pos Nr Rider Nat. Fed. Bike Time laps Diff. First Diff. Prev. Bestlaptime in lap Speed
1 84 Herlings, Jeffrey NED KNMV KTM 24:55.928 12 0:00.000 0:00.000 1:53.599 1 59.5
2 222 Cairoli, Antonio ITA FMI KTM 25:11.804 12 0:15.876 0:15.876 1:56.231 4 58.2
3 461 Febvre, Romain FRA FFM Yamaha 25:17.183 12 0:21.255 0:05.379 1:55.492 5 58.6
4 99 Anstie, Max GBR ACU Husqvarna 25:46.596 12 0:50.668 0:29.413 1:57.603 1 57.5
5 22 Strijbos, Kevin BEL FMB KTM 25:51.189 12 0:55.261 0:04.593 1:58.617 4 57
6 89 Van Horebeek, Jeremy BEL FMB Yamaha 26:04.377 12 1:08.449 0:13.188 1:59.553 4 56.6
7 259 Coldenhoff, Glenn NED KNMV KTM 26:08.888 12 1:12.960 0:04.511 2:01.252 3 55.8
8 24 Simpson, Shaun GBR ACU Yamaha 26:09.054 12 1:13.126 0:00.166 2:00.504 3 56.1
9 91 Seewer, Jeremy SUI FMS Yamaha 26:18.056 12 1:22.128 0:09.002 1:59.758 3 56.5
10 777 Bobryshev, Evgeny RUS MFR Suzuki 26:26.738 12 1:30.810 0:08.682 2:00.316 3 56.2
11 243 Gajser, Tim SLO AMZS Honda 26:28.046 12 1:32.118 0:01.308 2:01.549 4 55.6
12 21 Paulin, Gautier FRA MCM Husqvarna 26:29.705 12 1:33.777 0:01.659 2:02.545 5 55.2
13 25 Desalle, Clement BEL FMB Kawasaki 26:34.017 12 1:38.089 0:04.312 2:00.507 2 56.1
14 911 Tixier, Jordi FRA FFM KTM 26:40.146 12 1:44.218 0:06.129 2:02.456 2 55.2
15 17 Butron, Jose ESP RFME KTM 26:49.552 12 1:53.624 0:09.406 2:02.652 3 55.1
16 55 Irwin, Graeme GBR MCUI KTM 26:54.657 12 1:58.729 0:05.105 2:02.635 6 55.1
17 100 Searle, Tommy GBR ACU Kawasaki 27:05.227 12 2:09.299 0:10.570 2:03.526 6 54.7
18 152 Petrov, Petar BUL BMF Honda 24:56.824 11 1 lap 1 lap 2:03.687 3 54.7
19 7 Leok, Tanel EST EMF Husqvarna 25:01.036 11 1 lap 0:04.212 2:05.014 6 54.1
20 77 Lupino, Alessandro ITA FMI Kawasaki 25:02.328 11 1 lap 0:01.292 2:04.757 4 54.2

MX2 - Qualifying Race - Classification

Pos Nr Rider Nat. Fed. Bike Time laps Diff. First Diff. Prev. Bestlaptime in lap Speed
1 61 Prado, Jorge ESP RFME KTM 25:41.098 12 0:00.000 0:00.000 1:57.696 1 57.5
2 1 Jonass, Pauls LAT LAMSF KTM 25:46.477 12 0:05.379 0:05.379 1:57.999 2 57.3
3 64 Covington, Thomas USA MUL Husqvarna 25:58.412 12 0:17.314 0:11.935 1:59.506 1 56.6
4 426 Mewse, Conrad GBR ACU KTM 26:06.598 12 0:25.500 0:08.186 1:58.223 1 57.2
5 10 Vlaanderen, Calvin NED KNMV Honda 26:15.443 12 0:34.345 0:08.845 2:00.603 2 56.1
6 811 Sterry, Adam GBR ACU Kawasaki 26:17.449 12 0:36.351 0:02.006 2:00.613 3 56.1
7 193 Geerts, Jago BEL FMB Yamaha 26:23.146 12 0:42.048 0:05.697 2:01.619 2 55.6
8 19 Olsen, Thomas Kjer DEN DMU Husqvarna 26:30.806 12 0:49.708 0:07.660 2:00.844 1 56
9 747 Cervellin, Michele ITA FMI Yamaha 26:36.797 12 0:55.699 0:05.991 2:02.003 5 55.4
10 127 Rodriguez, Anthony VEN FMV Yamaha 26:43.897 12 1:02.799 0:07.100 2:02.784 2 55.1
11 919 Watson, Ben GBR ACU Yamaha 26:47.602 12 1:06.504 0:03.705 2:01.792 4 55.5
12 172 Van doninck, Brent BEL FMB Husqvarna 26:54.338 12 1:13.240 0:06.736 2:02.891 2 55
13 56 Weltin, Marshal USA AMA Kawasaki 26:56.136 12 1:15.038 0:01.798 2:02.688 5 55.1
14 98 Vaessen, Bas NED KNMV Honda 26:59.045 12 1:17.947 0:02.909 2:01.534 2 55.6
15 34 De Waal, Micha-Boy NED KNMV Honda 27:04.198 12 1:23.100 0:05.153 2:03.024 3 55
16 44 Lesiardo, Morgan ITA FMI KTM 27:11.788 12 1:30.690 0:07.590 2:05.609 6 53.8
17 96 Lawrence, Hunter AUS MA Honda 27:18.700 12 1:37.602 0:06.912 2:01.252 2 55.8
18 226 Koch, Tom GER DMSB KTM 27:42.660 12 2:01.562 0:23.960 2:06.002 2 53.7
19 75 Roosiorg, Hardi EST EMF KTM 25:47.239 11 1 lap 1 lap 2:06.569 2 53.4
20 101 Pichon, Zachary FRA FFM KTM 25:58.155 11 1 lap 0:10.916 2:06.735 3 53.4